Find Starlink 11668

NORAD ID: 63557 Int'l Des: 2025-075 Owner: SPXS Country: US Constellation: starlink operational
LEOCIRCULAR

Live Position

Loading 3D Globe...

About Starlink 11668

Description loading...

Upcoming Passes

Passes for default location (London). Set your location on the main map for personalized predictions.

Altitude History

Loading altitude history...

Two-Line Element Set

1 63557U 25075K 26123.17117404 .00187804 00000-0 14273-2 0 9991
2 63557 43.0006 185.7162 0001176 252.7648 107.3091 15.70956126 61819
Epoch: May 3, 2026 • Age: 21 hours

Current Status

Altitude 357.0 km
Velocity 7.70 km/s
Sub-Earth Point -11.05°S, 74.6°W
Launch Date Apr 13, 2025
Age 1 years
Type internet

Technical Details

Classification Payload
Mass 960.00 kg
Dry Mass 910.00 kg
Total Mass 960.00 kg
Length 0.30 m
Diameter 4.10 m
Span 29.00 m
Shape Box + pan
Manufacturer SPXS
Bus Type Starlink V2MD
Phase Status In Orbit
Owner/State SPXS/US

Most Searched